TimeEDT,TemperatureF,Dew PointF,Humidity,Sea Level PressureIn,VisibilityMPH,Wind Direction,Wind SpeedMPH,Gust SpeedMPH,PrecipitationIn,Events,Conditions,WindDirDegrees,DateUTC
12:53 AM,39.9,30.9,70,29.63,10.0,WSW,19.6,33.4,0.00,,Overcast,250,2013-03-25 04:53:00
1:53 AM,37.9,28.9,70,29.64,10.0,WSW,21.9,29.9,N/A,,Overcast,240,2013-03-25 05:53:00
2:53 AM,37.0,28.0,70,29.66,5.0,WSW,20.7,28.8,0.00,Snow,Light Snow,240,2013-03-25 06:53:00
3:51 AM,35.6,28.4,75,29.67,1.5,WSW,21.9,31.1,0.00,Snow,Light Snow,250,2013-03-25 07:51:00
3:53 AM,35.1,28.0,76,29.68,1.5,WSW,20.7,27.6,0.00,Snow,Light Snow,250,2013-03-25 07:53:00
4:02 AM,33.8,28.4,81,29.67,4.0,WSW,13.8,-,0.00,Snow,Light Snow,250,2013-03-25 08:02:00
4:24 AM,35.6,26.6,70,29.67,4.0,WSW,19.6,-,0.00,Snow,Light Snow,240,2013-03-25 08:24:00
4:43 AM,33.8,26.6,75,29.68,2.5,WSW,15.0,28.8,0.00,Snow,Light Snow,250,2013-03-25 08:43:00
4:53 AM,34.0,27.0,75,29.69,4.0,West,10.4,20.7,0.00,Snow,Light Snow,260,2013-03-25 08:53:00
5:03 AM,33.8,26.6,75,29.68,2.5,WSW,10.4,-,0.00,Snow,Light Snow,240,2013-03-25 09:03:00
5:24 AM,32.0,28.4,87,29.69,1.0,WSW,16.1,27.6,N/A,Snow,Light Snow,250,2013-03-25 09:24:00
5:38 AM,33.8,28.4,81,29.69,5.0,WSW,13.8,-,0.00,Snow,Light Snow,240,2013-03-25 09:38:00
5:53 AM,33.1,28.0,82,29.69,5.0,SW,15.0,-,0.00,Snow,Light Snow,230,2013-03-25 09:53:00
6:19 AM,33.8,26.6,75,29.69,2.5,WSW,19.6,-,0.00,Snow,Light Snow,250,2013-03-25 10:19:00
6:27 AM,33.8,26.6,75,29.70,2.0,WSW,20.7,-,0.00,Snow,Light Snow,240,2013-03-25 10:27:00
6:53 AM,33.1,27.0,78,29.70,3.0,WSW,17.3,-,0.00,Snow,Light Snow,240,2013-03-25 10:53:00
7:07 AM,33.8,26.6,75,29.70,1.2,SW,23.0,32.2,0.00,Snow,Light Snow,230,2013-03-25 11:07:00
7:09 AM,33.8,26.6,75,29.70,2.0,SW,21.9,32.2,0.00,Snow,Light Snow,230,2013-03-25 11:09:00
7:12 AM,32.0,26.6,80,29.71,1.5,SW,19.6,32.2,0.00,Snow,Light Snow,230,2013-03-25 11:12:00
7:15 AM,32.0,26.6,80,29.71,1.0,SW,16.1,-,0.00,Snow,Light Snow,230,2013-03-25 11:15:00
7:42 AM,32.0,28.4,87,29.72,2.0,SW,16.1,24.2,N/A,Snow,Light Snow,220,2013-03-25 11:42:00
7:50 AM,32.0,28.4,87,29.72,3.0,SW,16.1,-,0.00,Snow,Light Snow,220,2013-03-25 11:50:00
7:53 AM,32.0,28.0,85,29.72,3.0,SW,16.1,-,0.00,Snow,Light Snow,230,2013-03-25 11:53:00
8:28 AM,33.8,26.6,75,29.72,2.5,SW,15.0,24.2,0.00,Snow,Light Snow,230,2013-03-25 12:28:00
8:45 AM,33.8,26.6,75,29.73,2.0,SW,16.1,24.2,0.00,Snow,Light Snow,230,2013-03-25 12:45:00
8:46 AM,33.8,26.6,75,29.73,1.5,SW,15.0,24.2,0.00,Snow,Light Snow,230,2013-03-25 12:46:00
8:53 AM,33.1,27.0,78,29.74,1.5,SW,17.3,-,0.00,Snow,Light Snow,230,2013-03-25 12:53:00
9:23 AM,33.8,26.6,75,29.75,5.0,SW,17.3,24.2,0.00,Snow,Light Snow,230,2013-03-25 13:23:00
9:39 AM,33.8,26.6,75,29.75,5.0,WSW,20.7,28.8,0.00,Snow,Light Snow,240,2013-03-25 13:39:00
9:53 AM,34.0,27.0,75,29.76,3.0,SW,21.9,29.9,0.00,Snow,Light Snow,230,2013-03-25 13:53:00
10:15 AM,33.8,26.6,75,29.77,1.5,WSW,23.0,32.2,0.00,Snow,Light Snow,240,2013-03-25 14:15:00
10:40 AM,33.8,28.4,81,29.78,1.5,WSW,18.4,-,0.00,Snow,Light Snow,240,2013-03-25 14:40:00
10:50 AM,33.8,28.4,81,29.78,5.0,WSW,19.6,26.5,0.00,Snow,Light Snow,240,2013-03-25 14:50:00
10:53 AM,34.0,28.0,79,29.79,5.0,WSW,23.0,27.6,0.00,Snow,Light Snow,240,2013-03-25 14:53:00
11:53 AM,36.0,27.0,70,29.82,7.0,WSW,17.3,28.8,0.00,Snow,Light Snow,250,2013-03-25 15:53:00
12:53 PM,37.0,26.1,65,29.82,8.0,West,19.6,29.9,0.00,Snow,Light Snow,260,2013-03-25 16:53:00
1:04 PM,37.4,26.6,65,29.81,2.5,WSW,27.6,35.7,0.00,Snow,Light Snow,240,2013-03-25 17:04:00
1:14 PM,35.6,26.6,70,29.82,5.0,West,16.1,33.4,0.00,Snow,Light Snow,260,2013-03-25 17:14:00
1:53 PM,37.0,27.0,67,29.84,7.0,West,15.0,28.8,0.00,Snow,Light Snow,260,2013-03-25 17:53:00
2:13 PM,37.4,26.6,65,29.83,2.0,WSW,23.0,31.1,0.00,Snow,Light Snow,250,2013-03-25 18:13:00
2:15 PM,35.6,26.6,70,29.83,1.5,WSW,24.2,31.1,0.00,Snow,Light Snow,240,2013-03-25 18:15:00
2:17 PM,35.6,28.4,75,29.83,1.0,WSW,25.3,31.1,0.00,Snow,Light Snow,250,2013-03-25 18:17:00
2:32 PM,35.6,28.4,75,29.83,3.0,WSW,13.8,23.0,0.00,Snow,Light Snow,250,2013-03-25 18:32:00
2:42 PM,37.4,28.4,70,29.83,7.0,West,15.0,28.8,0.00,,Overcast,260,2013-03-25 18:42:00
2:53 PM,35.1,27.0,72,29.85,2.0,WSW,18.4,28.8,0.00,Snow,Light Snow,250,2013-03-25 18:53:00
2:55 PM,35.6,28.4,75,29.83,3.0,WSW,17.3,28.8,0.00,Snow,Light Snow,240,2013-03-25 18:55:00
3:02 PM,35.6,26.6,70,29.84,3.0,West,16.1,25.3,0.00,Snow,Light Snow,260,2013-03-25 19:02:00
3:20 PM,37.4,26.6,65,29.83,7.0,WSW,26.5,32.2,0.00,Snow,Light Snow,240,2013-03-25 19:20:00
3:53 PM,37.9,26.1,62,29.86,7.0,West,13.8,24.2,0.00,Snow,Light Snow,270,2013-03-25 19:53:00
4:53 PM,37.0,28.0,70,29.88,7.0,WSW,19.6,33.4,0.00,Snow,Light Snow,240,2013-03-25 20:53:00
5:31 PM,37.4,26.6,65,29.88,2.0,WSW,23.0,34.5,0.00,Snow,Light Snow,250,2013-03-25 21:31:00
5:53 PM,36.0,28.0,73,29.91,4.0,WSW,23.0,31.1,0.00,Snow,Light Snow,240,2013-03-25 21:53:00
6:53 PM,36.0,24.1,62,29.94,7.0,West,18.4,29.9,0.00,,Mostly Cloudy,260,2013-03-25 22:53:00
7:53 PM,35.1,26.1,70,29.98,7.0,WSW,17.3,25.3,0.00,Snow,Light Snow,250,2013-03-25 23:53:00
8:53 PM,34.0,25.0,70,29.99,7.0,WSW,15.0,-,0.00,,Overcast,250,2013-03-26 00:53:00
9:25 PM,33.8,24.8,70,29.99,7.0,WSW,13.8,-,0.00,Snow,Light Snow,250,2013-03-26 01:25:00
9:53 PM,34.0,25.0,70,30.02,7.0,WSW,15.0,-,0.00,Snow,Light Snow,250,2013-03-26 01:53:00
10:53 PM,33.1,25.0,72,30.03,7.0,WSW,15.0,-,0.00,Snow,Light Snow,240,2013-03-26 02:53:00
11:53 PM,33.1,25.0,72,30.04,5.0,WSW,12.7,-,0.00,Snow,Light Snow,240,2013-03-26 03:53:00